Location: Asheville, NC
(35.6000°N, 82.5500°W)
Time: 03:59:04
(UTC-04:00)

SO-50 - Pass Details

Date: 04 January 2018
Orbit: 596 x 691 km, 64.6° (Epoch: 16 July)

Event Time Altitude Azimuth Distance (km) Brightness Sun altitude
Rises 19:28:25 0° 328° (NNW) 2,970 ? -23.3°
Reaches altitude 10° 19:30:42 10° 327° (NNW) 2,071 ? -23.8°
Maximum altitude 19:35:24 75° 243° (WSW) 695 ? -24.7°
Enters shadow 19:37:08 39° 166° (SSE) 1,007 ? -25.1°
